Location: Livorno
(43.5500°N, 10.3170°E)
Time: 00:45:31
(UTC+02:00)

ISS - Pass Details

Date: 17 May 2026
Orbit: 413 x 422 km, 51.6° (Epoch: 7 June)

Event Time Altitude Azimuth Distance (km) Brightness Sun altitude
Rises 21:46:50 0° 295° (WNW) 2,349 1.7 -11.0°
Reaches altitude 10° 21:49:19 10° 313° (NW) 1,487 0.6 -11.3°
Maximum altitude 21:51:52 20° 3° (N) 1,028 -1.3 -11.7°
Drops below altitude 10° 21:54:25 10° 53° (NE) 1,489 -1.1 -12.0°
Enters shadow 21:56:27 - 69° (ENE) 2,186 -0.4 -12.3°
